+ View the NASA Portal
+ Center for Near-Earth Object Studies
IMPORTANT:
The SSD Announcement email list is now available. Major changes are coming in the near future, including possible hostname and/or URL changes. To be notified of such changes, subscribe to this email list.
Please visit
this page
for more details.
Don't show this message again
JPL Small-Body Database Browser
Search:
[
help
]
214156 (2005 CJ11)
Classification:
Main-belt Asteroid
SPK-ID:
2214156
[
Ephemeris
|
Orbit Diagram
|
Orbital Elements
|
Mission Design
|
Physical Parameters
|
Discovery Circumstances
]
[ show orbit diagram ]
Orbital Elements at Epoch 2458600.5 (2019-Apr-27.0) TDB
Reference:
JPL 11
(heliocentric ecliptic J2000)
Element
Value
Uncertainty (1-sigma)
Units
e
.1161522567829702
4.5671e-08
a
2.422501762787993
1.8187e-08
au
q
2.141122715979444
1.1444e-07
au
i
3.193109515592274
5.0836e-06
deg
node
100.2566244185809
9.3614e-05
deg
peri
47.40465494056082
9.7028e-05
deg
M
275.6549720859276
2.876e-05
deg
t
p
2458923.164781340108
(2020-Mar-14.66478134)
0.00011223
TDB
period
1377.192279796002
3.77
1.5509e-05
4.246e-08
d
yr
n
.2614014072554381
2.9437e-09
deg/d
Q
2.703880809596542
2.0299e-08
au
Orbit Determination Parameters
# obs. used (total)
178
data-arc span
5494 days (15.04 yr)
first obs. used
2003-09-30
last obs. used
2018-10-15
planetary ephem.
DE431
SB-pert. ephem.
SB431-N16
condition code
0
norm. resid. RMS
.56441
source
ORB
producer
Otto Matic
solution date
2019-Jul-14 00:11:25
Additional Information
Earth MOID
= 1.15481 au
Jupiter MOID
= 2.29682 au
T_jup
= 3.501
[ show covariance matrix ]
[
Ephemeris
|
Orbit Diagram
|
Orbital Elements
|
Mission Design
|
Physical Parameters
|
Discovery Circumstances
]
Physical Parameter Table
Parameter
Symbol
Value
Units
Sigma
Reference
Notes
absolute magnitude
H
17.3
n/a
MPO418148
214156 (2005 CJ11)
Discovered 2005-Feb-01 by Spacewatch at Kitt Peak
Reference:
20090509/Numbers.arc
Last Updated:
2009-05-11
Alternate Designations
2005 CJ11
= 2007 WV10
[
Ephemeris
|
Orbit Diagram
|
Orbital Elements
|
Mission Design
|
Physical Parameters
|
Discovery Circumstances
]
2019-Dec-11 15:02 UT
(server date/time)
Site Manager:
Ryan S. Park
Webmaster
:
Alan B. Chamberlin